CW3847 La Orotava ES current weather conditions

sailwx.info

Wind from 039

Air temperature 16.1° C
Dewpoint 11.9° C

Last reported at 2016-Feb-06 10:37 UTC.
Time now 2016-Feb-06 11:24 UTC

Location: N 28°23' W 016°31'.
View on Google Maps.

See reports from other nearby stations

  
Tides and Currents Weather Stations Pressure Air Temp Water Temp Dewpoint Dewpoint Depression Visibility Wind Speed Wind Dir Waves Ship Positions
date/time (UTC)wind fromknots sea level pressurealtimeterstation pressurevisibilityair tempwater tempwave heightnotes
2016-Feb-06 10:37 039 16.1
2016-Feb-06 10:27 042 0 gusting 1 16.1
2016-Feb-06 10:17 240 0 gusting 0 16.1
2016-Feb-06 10:07 240 1 gusting 2 15.6
2016-Feb-06 09:47 175 0 gusting 2 15.0
2016-Feb-06 09:37 175 15.0
2016-Feb-06 09:27 175 14.4
2016-Feb-06 09:17 175 14.4
2016-Feb-06 09:07 174 2 gusting 2 13.9
2016-Feb-06 08:37 168 0 gusting 3 13.3
2016-Feb-06 08:17 175 4 gusting 4 13.3
2016-Feb-06 08:07 167 2 gusting 3 13.3
2016-Feb-06 07:57 169 2 gusting 3 12.8
2016-Feb-06 07:17 173 3 gusting 7 12.8
2016-Feb-06 06:47 188 2 gusting 3 12.8
2016-Feb-06 06:37 175 2 gusting 4 12.8
2016-Feb-06 06:27 183 2 gusting 5 12.8
2016-Feb-06 06:17 175 2 gusting 4 12.8
2016-Feb-06 06:07 169 0 gusting 5 12.8
2016-Feb-06 05:47 175 2 gusting 4 12.8
2016-Feb-06 05:27 175 2 gusting 4 12.8
2016-Feb-06 05:07 164 3 gusting 4 12.8
2016-Feb-06 04:47 172 1 gusting 5 12.8
2016-Feb-06 04:37 167 4 gusting 4 12.8
2016-Feb-06 04:07 178 5 gusting 5 12.8
2016-Feb-06 03:57 139 2 gusting 4 12.8
2016-Feb-06 03:37 180 2 gusting 3 13.3
2016-Feb-06 03:27 155 4 gusting 6 13.3
2016-Feb-06 03:17 175 2 gusting 5 13.3
2016-Feb-06 02:47 184 2 gusting 4 13.3
2016-Feb-06 02:17 173 2 gusting 5 13.3
2016-Feb-06 02:07 156 1 gusting 5 13.3
2016-Feb-06 01:57 205 3 gusting 3 13.3
2016-Feb-06 01:37 154 2 gusting 4 13.3
2016-Feb-06 01:27 171 1 gusting 4 13.3
2016-Feb-06 01:17 172 4 gusting 4 13.3
2016-Feb-06 01:07 175 1 gusting 4 13.3
2016-Feb-06 00:47 175 1 gusting 5 13.3
2016-Feb-06 00:37 171 4 gusting 5 13.3
2016-Feb-06 00:17 178 3 gusting 6 13.3
2016-Feb-06 00:07 165 3 gusting 4 13.3
2016-Feb-05 23:47 173 1 gusting 3 13.9
2016-Feb-05 23:17 172 2 gusting 3 13.9
2016-Feb-05 22:57 163 4 gusting 5 13.9
2016-Feb-05 22:47 178 2 gusting 4 14.4
2016-Feb-05 22:37 178 2 gusting 5 14.4
2016-Feb-05 22:27 171 2 gusting 3 14.4
2016-Feb-05 21:57 176 1 gusting 2 14.4
2016-Feb-05 21:47 168 1 gusting 2 14.4
2016-Feb-05 21:27 171 1 gusting 2 14.4
2016-Feb-05 21:17 160 2 gusting 6 14.4
2016-Feb-05 21:07 182 2 gusting 5 14.4
2016-Feb-05 20:57 187 1 gusting 3 15.0
2016-Feb-05 20:47 170 2 gusting 3 15.0
2016-Feb-05 20:07 198 1 gusting 2 15.6
2016-Feb-05 19:57 329 0 gusting 1 15.6
2016-Feb-05 19:47 335 15.6
2016-Feb-05 19:37 338 0 gusting 2 15.6
2016-Feb-05 19:17 355 1 gusting 2 15.6
2016-Feb-05 19:07 005 2 gusting 2 16.1
2016-Feb-05 18:47 360 3 gusting 3 16.1
2016-Feb-05 18:37 355 0 gusting 2 16.1
2016-Feb-05 18:27 360 3 gusting 3 16.1
2016-Feb-05 18:17 010 2 gusting 2 16.1
2016-Feb-05 18:07 348 2 gusting 6 16.1
2016-Feb-05 17:57 342 3 gusting 4 16.7
2016-Feb-05 17:47 013 2 gusting 4 16.7
2016-Feb-05 17:37 036 2 gusting 3 16.7
2016-Feb-05 16:37 346 2 gusting 3 17.2
2016-Feb-05 16:17 005 3 gusting 4 17.2
2016-Feb-05 16:07 344 3 gusting 6 17.2
2016-Feb-05 15:37 336 1 gusting 6 17.8
2016-Feb-05 15:17 005 2 gusting 3 17.8
2016-Feb-05 15:07 334 2 gusting 4 17.2
2016-Feb-05 14:57 005 3 gusting 6 17.8
2016-Feb-05 14:47 013 5 gusting 6 18.3
2016-Feb-05 14:37 032 2 gusting 2 17.8
2016-Feb-05 14:27 323 2 gusting 6 18.3
2016-Feb-05 13:37 284 2 gusting 6 18.9
2016-Feb-05 13:07 294 2 gusting 4 18.9
2016-Feb-05 12:37 267 1 gusting 2 17.8
2016-Feb-05 12:07 303 1 gusting 6 17.8
2016-Feb-05 11:47 005 2 gusting 3 17.8
2016-Feb-05 11:27 297 3 gusting 5 17.2
2016-Feb-05 11:17 316 2 gusting 3 17.2
2016-Feb-05 11:07 296 0 gusting 1 17.2
2016-Feb-05 10:57 021 0 gusting 1 17.2
2016-Feb-05 10:47 315 2 gusting 2 17.2
2016-Feb-05 10:27 242 0 gusting 1 17.2
2016-Feb-05 10:17 188 0 gusting 0 17.2
2016-Feb-05 10:07 180 16.7
2016-Feb-05 09:57 180 16.7
2016-Feb-05 09:37 174 0 gusting 0 15.6
2016-Feb-05 09:17 178 2 gusting 3 13.9
2016-Feb-05 08:57 165 3 gusting 3 13.3
2016-Feb-05 08:47 176 2 gusting 4 13.3
2016-Feb-05 08:07 163 3 gusting 4 12.8
2016-Feb-05 07:57 155 1 gusting 3 12.8
2016-Feb-05 07:37 165 2 gusting 4 12.8
2016-Feb-05 07:07 167 2 gusting 5 13.3
2016-Feb-05 06:57 169 2 gusting 3 12.8
2016-Feb-05 05:57 181 1 gusting 2 13.3
2016-Feb-05 05:07 199 2 gusting 4 12.8
2016-Feb-05 04:47 172 2 gusting 3 13.3
2016-Feb-05 04:17 168 1 gusting 2 13.9
2016-Feb-05 03:57 192 0 gusting 1 13.9
2016-Feb-05 03:37 167 2 gusting 2 13.9
2016-Feb-05 03:17 176 0 gusting 2 13.9
2016-Feb-05 02:57 172 3 gusting 4 13.9
2016-Feb-05 02:47 167 2 gusting 2 13.9
2016-Feb-05 02:37 167 2 gusting 3 13.9
2016-Feb-05 02:27 169 2 gusting 4 13.9
2016-Feb-05 02:07 175 1 gusting 2 13.9
2016-Feb-05 01:57 176 2 gusting 2 13.9
2016-Feb-05 01:37 176 13.9
2016-Feb-05 01:27 176 0 gusting 1 13.9
2016-Feb-05 00:57 173 1 gusting 2 13.9
2016-Feb-05 00:47 171 1 gusting 2 13.9
2016-Feb-05 00:17 171 0 gusting 2 13.9
2016-Feb-05 00:07 170 0 gusting 2 14.4
2016-Feb-04 23:57 180 1 gusting 2 14.4
2016-Feb-04 23:47 180 1 gusting 2 14.4
2016-Feb-04 23:37 181 2 gusting 2 14.4
2016-Feb-04 23:27 167 15.0
2016-Feb-04 23:17 167 15.0
2016-Feb-04 23:07 168 2 gusting 2 14.4
2016-Feb-04 22:57 168 14.4
2016-Feb-04 22:47 168 0 gusting 2 14.4
2016-Feb-04 22:37 175 2 gusting 3 14.4
2016-Feb-04 22:17 169 1 gusting 3 15.0
2016-Feb-04 21:57 179 0 gusting 1 15.0
2016-Feb-04 21:17 188 15.0
2016-Feb-04 20:57 173 0 gusting 1 15.6
2016-Feb-04 20:37 168 0 gusting 3 15.0
2016-Feb-04 20:07 324 1 gusting 2 15.6
2016-Feb-04 19:47 355 1 gusting 2 16.1
2016-Feb-04 19:37 340 2 gusting 2 16.1
2016-Feb-04 19:27 348 2 gusting 3 16.1
2016-Feb-04 18:57 348 1 gusting 2 16.1
2016-Feb-04 18:47 333 2 gusting 2 16.1
2016-Feb-04 18:27 342 2 gusting 2 16.1
2016-Feb-04 18:07 339 0 gusting 0 16.7
2016-Feb-04 17:17 308 1 gusting 3 17.2
2016-Feb-04 17:07 295 1 gusting 2 17.2
2016-Feb-04 16:57 324 2 gusting 2 17.2
2016-Feb-04 16:47 345 2 gusting 2 17.2
2016-Feb-04 16:37 325 2 gusting 3 17.2
2016-Feb-04 16:07 327 2 gusting 4 17.8
2016-Feb-04 15:57 355 0 gusting 2 17.8
2016-Feb-04 15:47 331 2 gusting 2 18.3
2016-Feb-04 15:17 323 4 gusting 7 18.3
2016-Feb-04 15:07 315 2 gusting 3 18.3
2016-Feb-04 14:57 315 2 gusting 2 18.3
2016-Feb-04 14:47 317 2 gusting 3 18.3
2016-Feb-04 14:37 306 2 gusting 3 18.3
2016-Feb-04 14:27 278 0 gusting 5 18.3
2016-Feb-04 14:17 333 1 gusting 3 18.3
2016-Feb-04 14:07 301 2 gusting 2 18.3
2016-Feb-04 13:47 276 1 gusting 5 18.3
2016-Feb-04 13:37 323 0 gusting 2 18.3
2016-Feb-04 13:27 331 4 gusting 6 18.3
2016-Feb-04 13:17 322 2 gusting 3 18.3
2016-Feb-04 12:57 327 0 gusting 0 18.3
2016-Feb-04 12:47 323 2 gusting 3 18.3
2016-Feb-04 12:37 299 17.8
2016-Feb-04 12:17 317 0 gusting 2 17.2
2016-Feb-04 11:57 300 1 gusting 2 17.2
2016-Feb-04 11:37 339 2 gusting 4 17.2
2016-Feb-04 11:27 290 0 gusting 1 17.2
2016-Feb-04 11:17 005 1 gusting 2 17.2